Location: Ghisoni
(42.1026°N, 9.2103°E)
Time: 05:20:10
(UTC+00:00)

Daily predictions for brighter satellites

Satellite Brightness Start Highest point End
(mag) Time Altitude Azimuth Time Altitude Azimuth Time Altitude Azimuth
SJ 16-02 3.5 00:09:53 25° NNE 00:09:53 25° NNE 00:11:45 10° NNE
Cosmos 2263 Rocket 3.9 00:14:58 22° E 00:14:58 22° E 00:18:07 10° NE
SL-16 R/B 3.0 00:09:43 10° NNW 00:13:47 48° NNW 00:13:47 48° NNW
Cosmos 2297 Rocket 3.5 00:28:55 32° NW 00:28:55 32° NW 00:33:33 10° N
ADEOS II 4.2 00:30:02 10° NE 00:33:18 17° E 00:33:36 16° E
Cosmos 2344 4.5 00:25:20 10° NW 00:35:17 64° WSW 00:38:10 54° SSW
USA 229 DEB 3.6 00:36:45 76° ENE 00:36:45 76° ENE 00:43:05 10° NE
USA 229 3.6 00:36:53 76° ENE 00:36:53 76° ENE 00:43:10 10° NE
Cosmos 1898 Rocket 4.2 00:43:57 51° NNE 00:43:57 51° NNE 00:47:50 10° NNE
Cosmos 2237 Rocket 4.4 00:40:14 10° NW 00:41:12 13° WNW 00:41:12 13° WNW
NOSS 3-1 (A) 3.6 00:48:36 60° ENE 00:48:36 60° ENE 00:53:51 10° NE
GEOS 3 Rocket 4.4 00:43:07 10° NE 00:47:19 45° E 00:47:19 45° E
Meteor 1-24 Rocket 4.1 00:44:58 10° N 00:49:07 54° N 00:49:07 54° N
Cosmos 1603 4.5 00:50:26 10° NNW 00:55:59 48° ENE 00:57:17 41° E
CZ-2D R/B 2.2 01:02:53 10° NNE 01:08:00 76° NE 01:08:00 76° NE
SL-16 R/B 2.4 01:09:25 84° S 01:09:38 87° WSW 01:15:56 10° NNW
Timation 1 Rocket 4.3 01:10:12 73° NW 01:10:12 73° NW 01:16:00 10° NNE
Cosmos 1943 3.7 01:09:02 10° NNW 01:14:35 56° ENE 01:16:10 42° ESE
USA 215 4.4 01:10:18 10° ENE 01:15:48 28° SE 01:16:30 28° SE
Cosmos 1655 Rocket 4.0 01:12:29 10° NNW 01:18:27 66° W 01:18:27 66° W
Cosmos 2227 Rocket 4.2 01:18:31 16° WNW 01:19:35 17° NW 01:23:13 10° N
Cosmos 1544 Rocket 4.3 01:22:37 50° N 01:22:37 50° N 01:25:58 10° N
Cosmos 2292 Rocket 4.3 01:15:40 10° NNW 01:22:07 69° WNW 01:22:07 69° WNW
Cosmos 1470 4.4 01:24:19 31° N 01:24:19 31° N 01:26:33 10° N
Cosmos 1953 3.6 01:23:54 39° NE 01:23:54 39° NE 01:26:54 10° NNE
IRS-1D 3.9 01:20:22 10° NNE 01:25:26 57° E 01:25:39 56° ESE
NPP 3.6 01:21:48 10° N 01:27:04 78° NW 01:27:04 78° NW
AQUA 3.9 01:30:08 10° N 01:34:26 70° NNW 01:34:26 70° NNW
Atlas Centaur 2 3.9 01:38:02 22° SE 01:38:02 22° SE 01:41:47 10° ESE
Exosat Rocket 4.4 01:36:53 52° SW 01:38:44 68° WNW 01:44:54 10° NNE
Resurs 1-4 Rocket 2.5 01:36:41 10° N 01:41:36 47° WNW 01:41:36 47° WNW
Cosmos 2227 4.4 01:44:00 54° W 01:44:30 56° WNW 01:50:11 10° NNE
Cosmos 1602 Rocket 3.7 01:40:21 10° N 01:44:26 68° NE 01:44:26 68° NE
Cosmos 2098 Rocket 4.2 01:40:34 10° NNW 01:46:13 52° W 01:46:32 52° WSW
SJ 16-02 3.8 01:46:52 12° NW 01:46:52 12° NW 01:48:17 10° NNW
IDEFIX/ARIANE 42P 4.1 01:45:56 10° NE 01:50:26 29° E 01:53:20 18° SE
Meteor 2-14 Rocket 4.3 01:44:34 10° N 01:50:40 87° E 01:52:41 45° S
Cosmos 1908 3.8 01:56:15 52° E 01:56:15 52° E 02:00:05 10° NNE
Cosmos 2263 Rocket 2.5 01:56:40 46° W 01:57:19 48° WNW 02:02:43 10° NNE
Cosmos 1048 Rocket 4.2 01:52:48 10° NNW 01:57:58 67° ENE 02:01:21 22° SSE
Cosmos 2298 Rocket 3.9 01:57:57 66° SW 01:58:38 78° WNW 02:04:00 10° NNE
IRS-P3 4.1 01:55:04 10° NNE 02:00:27 77° ESE 02:01:51 50° S
Cosmos 2228 4.2 01:59:31 30° SE 02:00:56 39° E 02:05:03 10° NNE
Meteor 1-16 Rocket 4.1 02:01:58 52° S 02:03:22 86° E 02:08:59 10° N
Cosmos 372 Rocket 4.3 02:04:37 47° W 02:05:07 49° WNW 02:10:14 10° N
Meteor 1-28 Rocket 3.7 02:06:34 50° ESE 02:07:13 59° ENE 02:10:59 10° N
COBE Rocket 4.3 02:08:32 43° WNW 02:08:32 43° WNW 02:12:20 10° NNW
SL-08 R/B 3.6 02:05:26 29° SSE 02:08:00 72° ENE 02:12:56 10° N
Cosmos 2285 Rocket 3.9 02:11:00 45° SW 02:13:02 76° WNW 02:19:22 10° NNE
Cosmos 1726 3.6 02:14:19 27° NW 02:14:19 27° NW 02:16:34 10° NNW
ADEOS II 2.1 02:08:13 10° N 02:13:25 62° WNW 02:14:31 50° WSW
ATLAS CENTAUR R/B 1.5 02:13:46 56° NW 02:13:47 56° NW 02:17:40 10° NNE
Cosmos 1626 Rocket 4.5 02:10:00 10° NNW 02:13:03 34° WNW 02:13:03 34° WNW
CZ-4B R/B 3.8 02:11:48 10° N 02:16:16 42° WNW 02:16:40 41° W
Cosmos 1553 Rocket 3.9 02:15:28 31° S 02:18:36 81° E 02:24:45 10° N
NOSS 2-2 (C) 4.4 02:18:18 29° SE 02:18:48 31° ESE 02:22:06 10° NE
Cosmos 1844 Rocket 3.1 02:17:42 30° S 02:20:16 56° ESE 02:25:43 10° NNE
NOSS 8 (H) 4.4 02:24:24 70° NE 02:24:24 70° NE 02:27:07 10° NE
Meteor 1-11 4.5 02:21:19 10° N 02:27:04 70° E 02:32:40 10° SSE
Cosmos 2084 4.3 02:28:47 34° WNW 02:29:42 38° NW 02:33:53 10° NNE
Lacrosse 5 rocket 4.2 02:30:08 10° SE 02:31:36 11° ESE 02:33:04 10° E
Cosmos 1745 Rocket 4.2 02:25:50 10° N 02:32:06 71° E 02:38:15 10° SSE
ARIANE 5 R/B 2.5 02:28:36 10° N 02:33:51 77° WNW 02:36:11 34° SSW
Cosmos 1758 Rocket 3.5 02:32:37 10° NNW 02:36:54 62° W 02:38:14 40° SSW
ERS-1 4.4 02:34:00 10° N 02:38:56 66° WNW 02:41:01 34° SW
SL-08 R/B 4.4 02:35:03 10° NNW 02:41:16 72° W 02:46:47 14° S
Cosmos 2058 Rocket 3.6 02:41:31 17° S 02:44:51 58° E 02:49:14 10° NNE
H-2A R/B 2.6 02:42:03 10° SSE 02:46:02 55° ENE 02:50:03 10° N
Cosmos 494 Rocket 3.9 02:41:11 10° NNW 02:46:21 73° WSW 02:51:31 10° S
Aureole 3 4.5 02:43:29 23° SSW 02:47:24 78° W 02:54:35 10° N
CZ-2D R/B 4.1 02:44:47 10° NNW 02:47:42 15° WNW 02:49:19 13° WNW
S3M 4.0 02:45:36 19° SSW 02:50:25 80° W 02:56:51 10° N
Cosmos 1703 3.9 02:48:46 10° NNW 02:52:22 34° W 02:52:42 33° WSW
SL-16 R/B 4.3 02:54:31 13° W 02:54:31 13° W 02:56:50 10° WNW
CZ-2C R/B 3.8 02:50:09 10° NNE 02:54:21 33° E 02:58:36 10° SSE
Landsat 5 3.8 02:51:02 10° SSE 02:54:58 65° ENE 02:59:05 10° N
Cosmos 1825 Rocket 3.7 02:51:16 10° NNW 02:55:27 48° W 02:57:30 26° SSW
Cosmos 1125 Rocket 4.1 02:54:00 27° WSW 02:56:15 41° WNW 03:01:14 10° N
Cosmos 1943 4.4 02:54:06 10° NW 02:57:52 20° W 02:57:52 20° W
USA 215 3.3 02:52:39 10° NE 02:59:14 81° NW 03:03:50 21° SW
OAO 3 Rocket 4.3 02:58:35 25° SSW 02:59:21 26° SSW 03:03:27 10° SE
Cosmos 1953 4.4 02:59:36 13° WNW 02:59:41 13° WNW 03:01:45 10° NW
SL-24 R/B 4.4 02:56:46 10° SSE 03:02:18 83° WSW 03:06:59 10° NNW
CZ-4B R/B 4.3 03:01:38 10° ESE 03:04:00 19° ENE 03:06:19 10° NNE
Cosmos 1953 Rocket 3.7 03:02:33 10° NNW 03:06:57 57° W 03:11:08 11° S
CZ-2D R/B 4.0 03:07:17 10° N 03:10:59 37° WNW 03:12:51 23° WSW
Cosmos 1709 Rocket 4.1 03:05:43 10° N 03:11:54 81° E 03:18:00 10° S
OAO 2 Rocket 4.1 03:10:54 21° SW 03:13:48 39° S 03:18:40 10° ESE
PAYLOAD A 4.3 03:11:40 10° NNE 03:16:55 69° ESE 03:21:57 10° S
Hubble Space Telescope 2.9 03:22:46 11° SSW 03:23:48 12° S 03:25:28 10° SSE
Atlas Centaur 2 3.6 03:20:39 17° SW 03:24:50 31° S 03:31:29 10° ESE
NOSS 2-2 (E) 3.9 03:22:45 19° WSW 03:24:53 38° NW 03:28:37 10° NNE
NOSS 2-2 (D) 3.6 03:23:30 20° WSW 03:25:43 47° NW 03:29:28 10° NNE
CENTAUR R/B 4.5 03:20:57 10° NNW 03:28:33 44° NE 03:36:50 10° ESE
IDEFIX/ARIANE 42P 3.3 03:25:20 10° N 03:30:02 36° WNW 03:34:08 13° SW
USA 267 3.8 03:23:50 10° ESE 03:30:17 65° NE 03:36:45 10° NW
ADEOS 4.4 03:26:46 10° NNE 03:31:53 52° E 03:36:57 10° S
MSX 4.2 03:30:29 10° N 03:36:01 49° WNW 03:41:33 10° SW
PSLV R/B 3.5 03:32:28 10° N 03:36:51 74° WNW 03:41:09 10° SSW
COSMOS 2406 4.1 03:33:17 10° NNW 03:38:53 55° ENE 03:44:25 10° SE
Cosmos 2315 Rocket 4.1 03:33:49 10° SSW 03:40:06 67° W 03:46:29 10° N
ADEOS Rocket 4.1 03:32:38 10° SSE 03:40:15 66° ENE 03:47:53 10° N
Cosmos 1825 4.2 03:36:51 10° NNE 03:40:17 32° ENE 03:43:40 10° SE
Cosmos 1844 4.3 03:37:25 12° SW 03:42:24 41° WNW 03:47:51 10° NNE
Cosmos 1455 2.5 03:44:30 10° S 03:48:20 72° E 03:52:12 10° NNE
CZ-2C R/B 4.2 03:46:36 10° NNW 03:49:32 21° WNW 03:52:25 10° WSW
Aureole 2 Rocket 3.8 03:48:30 10° S 03:51:07 32° ESE 03:53:53 10° NE
deb Chang Zheng 4 3.6 03:46:58 10° NNE 03:51:20 86° WNW 03:55:42 10° SSW
Cosmos 1300 4.3 03:49:36 10° WSW 03:52:18 19° WNW 03:55:04 10° NNW
ERS-2 3.1 03:51:36 10° SSW 03:54:43 27° W 03:57:53 10° NW
TSX-5 3.2 03:53:48 10° SSW 03:56:56 84° ESE 04:00:12 10° NNE
Cosmos 1400 Rocket 2.8 03:55:38 10° S 03:59:31 84° E 04:03:24 10° N
Cosmos 2278 Rocket 2.4 03:57:31 10° SSW 04:03:10 79° ESE 04:08:51 10° NNE
Cosmos 1844 Rocket 4.0 04:00:08 10° WSW 04:04:32 23° NW 04:08:55 10° N
SAR-Lupe-4 3.6 04:01:07 10° S 04:04:37 58° WSW 04:08:11 10° NNW
